Orbital Elements at Epoch 2459200.5 (2020-Dec-17.0) TDB
Reference: JPL 19 (heliocentric ecliptic J2000)
Element | Value | Uncertainty (1-sigma) | Units |
e | .081080604121089 | 4.4444e-08 | |
a | 3.15745697030525 | 2.1489e-08 | au |
q | 2.901448451666557 | 1.4029e-07 | au |
i | 22.85397100112797 | 4.2342e-06 | deg |
node | 153.8125198757221 | 1.2583e-05 | deg |
peri | 63.93922762237082 | 3.1766e-05 | deg |
M | 52.10784060521237 | 2.7072e-05 | deg |
tp | 2458903.876767642958 (2020-Feb-24.37676764) | 0.00015521 | TDB |
period | 2049.295507322434 5.61 | 2.0921e-05 5.728e-08 | d yr |
n | .1756701260085073 | 1.7934e-09 | deg/d |
Q | 3.413465488943943 | 2.3232e-08 | au |
|
| | Orbit Determination Parameters
Additional Information
|